❰ Current Conditions

Special Weather Statement
ELEVATED FIRE WEATHER THE REST OF THIS WEEKEND

Special Weather Statement issued September 19 at 3:46PM EDT by NWS Boston/Norton MA

The prolonged dry weather across southern New England has resulted in very low live and dead fuel moisture. With low relative humidity and gusty winds Sunday, any fires which escape initial containment and become established, could potentially become serious.

Consult your local fire warden if planning any outdoor burning this weekend.
NWS Regional Weather Roundup - New England Area

REGIONAL WEATHER ROUNDUP
NATIONAL WEATHER SERVICE BOSTON/NORTON MA
600 AM EDT SUN SEP 20 2020

NOTE:  "FAIR" INDICATES FEW OR NO CLOUDS BELOW 12,000 FEET WITH NO 
SIGNIFICANT WEATHER AND/OR OBSTRUCTIONS TO VISIBILITY.

MAZALL-201100-
EASTERN MASSACHUSETTS
  
CITY           SKY/WX    TMP DP  RH WIND       PRES   REMARKS
BOSTON         PTCLDY    44  28  53 N9        30.46R                  
BEVERLY        CLEAR     37  31  78 N7        30.46R WCI  32          
LAWRENCE       CLEAR     39  32  76 CALM      30.49R                  
BEDFORD        CLEAR     35  30  82 CALM      30.46R                  
BLUE HILL        N/A     41  29  62 N12       30.43R                  
NORWOOD        CLEAR     41  30  65 N3        30.46R                  
MARSHFIELD       N/A     55  37  50 NE8G17    30.43R                  
PLYMOUTH       PTCLDY    43  37  79 NW6       30.43R                  
TAUNTON        CLEAR     34  31  88 W3        30.44R                  
NEW BEDFORD    PTCLDY    42  34  73 N6        30.42R                  
$$

MAZALL-201100-
CAPE COD AND THE ISLANDS
  
CITY           SKY/WX    TMP DP  RH WIND       PRES   REMARKS
FALMOUTH       MOCLDY    54  37  54 NE7       30.40R                  
HYANNIS        CLEAR     53  39  59 NE8       30.39R                  
CHATHAM        PTCLDY    53  41  63 N3        30.40R                  
PROVINCETOWN   PTCLDY    54  40  59 NE15      30.42R                  
NANTUCKET      MOCLDY    57  42  57 NE18      30.37R                  
MARTHAS VNYRD  PTCLDY    53  40  61 N12       30.39R                  
$$
 
MAZALL-201100-
CENTRAL AND WESTERN MASSACHUSETTS
  
CITY           SKY/WX    TMP DP  RH WIND       PRES   REMARKS
WORCESTER      CLEAR     44  26  49 N10       30.45R                  
FITCHBURG      CLEAR     34  27  75 NW3       30.48R                  
ORANGE         CLEAR     31  29  92 CALM      30.50R                  
SPRINGFIELD    NOT AVBL                                               
WESTFIELD      CLEAR     35  32  88 N7        30.48R WCI  29          
NORTH ADAMS    CLEAR     30  28  92 CALM      30.50R                  
PITTSFIELD     CLEAR     34  31  88 CALM      30.46R                  
$$
 
RIZALL-201100-
RHODE ISLAND
  
CITY           SKY/WX    TMP DP  RH WIND       PRES   REMARKS
PROVIDENCE     MOCLDY    46  30  53 N9        30.45R                  
NEWPORT        PTCLDY    47  33  58 N12       30.43R                  
BLOCK ISLAND   PTCLDY    49  38  65 N12G21    30.42R                  
SMITHFIELD     PTCLDY    41  31  67 N7        30.46R                  
WESTERLY       PTCLDY    45  30  55 N6        30.44R                  
$$
 
CTZALL-201100-
CONNECTICUT
  
CITY           SKY/WX    TMP DP  RH WIND       PRES   REMARKS
BRADLEY INTL   PTCLDY    36  31  82 N7        30.47R WCI  30          
HARTFORD       PTCLDY    42  33  70 N3        30.48R                  
BRIDGEPORT     MOCLDY    50  33  52 NE13      30.45R                  
DANBURY        MOCLDY    40  36  86 SW3       30.47R                  
GROTON         PTCLDY    44  31  60 N13       30.43R                  
NEW HAVEN      PTCLDY    47  34  60 N10       30.46R                  
CHESTER        FAIR      45  32  61 N6        30.45R                  
MERIDEN        PTCLDY    45  31  58 N5        30.47R                  
WILLIMANTIC    PTCLDY    37  32  82 CALM      30.46R                  
OXFORD         MOCLDY    43  30  60 NE7       30.46R                  
$$

MEZ002-015-021-024-NHZ003-005-008-011-012-014-VTZ005-008-201100-
NORTHERN NEW ENGLAND
  
CITY           SKY/WX    TMP DP  RH WIND       PRES   REMARKS
PORTLAND ME    CLEAR     38  31  76 NW5       30.48R                  
BANGOR ME      PTCLDY    30  26  85 CALM      30.47R                  
CONCORD NH     CLEAR     28  25  88 CALM      30.49R                  
MANCHESTER NH  CLEAR     40  30  67 N3        30.47R                  
NASHUA NH      CLEAR     33  31  92 NW5       30.49R WCI  29          
PORTSMOUTH NH  NOT AVBL                                               
JAFFREY NH     CLEAR     29  25  85 CALM      30.47R                  
KEENE NH       CLEAR     27  27 100 CALM      30.51R                  
BURLINGTON VT  CLOUDY    36  32  85 CALM      30.52R                  
MT. WASHINGTON MOCLDY    23  18  80 N28         N/A  WCI   6          
$$

NYZ052-076-201100-
EASTERN NEW YORK
  
CITY           SKY/WX    TMP DP  RH WIND       PRES   REMARKS
ALBANY         MOCLDY    34  33  96 CALM      30.51R                  
NEW YORK CITY  PTCLDY    54  36  50 NE12      30.44R                  
$$
 
ANZALL-201100-
MARINE OBSERVATIONS
  
STATION/POSITION TIME  TEMP    WIND        PRES    VSBY  WAVE
                       AIR SEA DIR/SP/G                  HT/PER
                 (UTC) (F)     (DEG/KT/KT) (MB)    (MI)  (FT/S)
BOSTON BUOY      0950   54 61   20/ 19/ 23 1029.4R         6/ 6
BUZZARDS BAY     0900          360/ 18/ 21 1029.9R
NANTUCKET SOUND  0950      67   20/ 17/ 21   N/A           2/ 3
MASS BAY-STELLWA 0904   54      40/ 17/ 21 1027.8R  1 7/8  6/ 5
ISLE OF SHOALS   0900   49      10/ 18/ 20 1030.3R
S OF BLOCK IS    0926      67                N/A           5/ 4
$$

......................KEY.........................
  SKY/WX - SKY CONDITION/PRESENT WEATHER
  TMP    - TEMPERATURE IN FAHRENHEIT
  DWPT   - DEWPOINT IN FAHRENHEIT
  RH     - RELATIVE HUMIDITY IN PERCENT
  WIND   - DIRECTION AND SPEED IN MPH
  PRES   - MEAN SEA LEVEL PRESSURE IN INCHES OF HG
  WCI    - WIND CHILL INDEX
  VSB    - VISIBILITY IN MILES
  HX     - HEAT INDEX
  TC     - TEMPERATURE IN CELSIUS
  VRB    - VARIABLE WIND DIRECTION